Regional Weather Roundup
Issued by NWS Midland/Odessa, TX

Skip options and go directly to product.
Home | Oldest Version | Previous Version | Current Version | All | Text Only | Save Text | Print | Product List | Glossary On

Skip product version selection by date and time.   
985
ASUS44 KMAF 131510
RWRMAF
MIDLAND AREA WEATHER ROUNDUP
NATIONAL WEATHER SERVICE MIDLAND TX
900 AM CST SAT FEB 13 2016

...IN SOUTHWEST TEXAS AND SOUTHEAST NEW MEXICO...

CITY           SKY/WX    TMP DP  RH WIND       PRES   REMARKS
ALPINE         SUNNY     57  21  24 SW5       30.37S
ANDREWS        FAIR      45  33  61 SE10      30.32R WCI  40
ARTESIA        CLOUDY    43  27  52 CALM      30.30S
BIG SPRING     SUNNY     44  32  61 E6        30.34F
CARLSBAD       CLOUDY    38  27  64 W3        30.29S
DRYDEN           N/A     56  42  59 VRB5      30.29R
FORT STOCKTON  SUNNY     47  26  44 SW8       30.29S
GUAD PASS      SUNNY     53  17  24 SW9       30.33S
HOBBS          SUNNY     41  32  70 VRB5      30.32S WCI  38
MARFA          CLOUDY    48  22  35 N3        30.35S
MIDLAND AIRPK  SUNNY     48  34  58 E6        30.32S
MIDLAND INTL   SUNNY     48  33  56 SE12      30.31S
ODESSA         SUNNY     48  33  56 SE10      30.31S
PECOS          CLOUDY    39  30  69 NW6       30.30S WCI  35
PRESIDIO       FAIR      50  20  31 N3        30.29R
SEMINOLE       SUNNY     42  32  69 E6        30.33R WCI  38
SNYDER           N/A     38  33  82 NE5       30.35S WCI  34
WINK           SUNNY     45  33  63 N3        30.29R
$$
...OTHER STATIONS IN TEXAS...

CITY           SKY/WX    TMP DP  RH WIND       PRES   REMARKS
ABILENE        SUNNY     44  35  70 SE6       30.35S
AMARILLO       CLOUDY    32  28  85 S18       30.30S WCI  20
AUSTIN         MOSUNNY   54  41  61 NE7       30.35R
BROWNSVILLE    SUNNY     65  61  87 SE8       30.31S
CORPUS CHRISTI PTSUNNY   64  60  87 SE6       30.33R
DALLAS FTW     MOSUNNY   47  32  56 E9        30.40S
DEL RIO        SUNNY     54  43  66 SE5       30.30R
EL PASO        PTSUNNY   44  15  31 N9        30.27R WCI  39
HOUSTON INT    PTSUNNY   58  45  62 E13       30.37R
LUBBOCK        MOSUNNY   36  31  82 SE9       30.32S WCI  29
SAN ANGELO     SUNNY     46  34  62 E3        30.34S
SAN ANTONIO    CLOUDY    55  43  63 N3        30.35R
WACO           SUNNY     47  35  63 NE7       30.38S
WICHITA FALLS  NOT AVBL
$$
...OTHER LOCATIONS IN NEW MEXICO...

CITY           SKY/WX    TMP DP  RH WIND       PRES   REMARKS
ALAMAGORDO     MOSUNNY   39  14  35 CALM      30.29S
ALBUQUERQUE    CLOUDY    34  20  56 CALM      30.32R
CANNON AFB     CLOUDY    38  33  83 SW6       30.29F WCI  34
CLOVIS         SUNNY     37  30  75 S8        30.31F WCI  31
HOLLOMAN AFB   MOSUNNY   36  11  36 NE3       30.27F
ROSWELL        CLOUDY    39  25  57 CALM      30.29S
RUIDOSO          N/A     46  10  23 W5        30.36S
SANTA FE       CLOUDY    37  24  59 N12       30.31S WCI  29
TRUTH OR CONSE PTSUNNY   43  12  28 NW5       30.29S
TUCUMCARI      SUNNY     45  29  53 W10       30.25S WCI  40
$$

USA.gov is the U.S. government's official web portal to all federal, state and local government web resources and services.